Station Historical Data
Daily Summary for November 16, 2017 Units:  English    Metric   Both
« Previous Day
Next Day »
Daily Weekly Monthly Yearly Custom
  High: Low: Average:
Temperature: 47.3 °F 35.0 °F 42.2 °F
Dew Point: 42.5 °F 26.5 °F 34.8 °F
Humidity: 86% 67% 75%
Wind Speed: 17.0mph 1.0mph 7.7mph
Wind Gust: 26.0mph - -
Wind- - West
Pressure: 30.14 in 29.67 in -
Precipitation: 0.00 in    
Historical Graphs
 
 
Tabular Data for November 16, 2017
Time Temperature Dew Point Pressure Wind Wind Speed Wind Gust Humidity Rainfall Rate (Hourly)
00:04 45.7 °F 40.2 °F 29.72 in SW 14.0 mph 15.0 mph 81% 0.01 in
00:09 45.7 °F 40.2 °F 29.72 in South 9.0 mph 21.0 mph 81% 0.01 in
00:14 45.8 °F 40.3 °F 29.72 in SSW 8.0 mph 18.0 mph 81% 0.01 in
00:19 45.7 °F 40.2 °F 29.71 in SW 10.0 mph 19.0 mph 81% 0.01 in
00:24 45.8 °F 40.3 °F 29.71 in SSW 9.0 mph 22.0 mph 81% 0.00 in
00:29 45.8 °F 40.3 °F 29.71 in SSW 9.0 mph 22.0 mph 81% 0.00 in
00:34 45.8 °F 40.3 °F 29.71 in SSW 9.0 mph 22.0 mph 81% 0.00 in
00:39 45.9 °F 40.4 °F 29.70 in SSW 9.0 mph 20.0 mph 81% 0.00 in
00:44 45.9 °F 40.7 °F 29.70 in SSW 8.0 mph 20.0 mph 82% 0.00 in
00:49 45.8 °F 40.6 °F 29.70 in South 5.0 mph 15.0 mph 82% 0.00 in
00:54 45.7 °F 40.5 °F 29.69 in SSE 9.0 mph 20.0 mph 82% 0.00 in
01:04 45.8 °F 40.6 °F 29.69 in SSE 4.0 mph 19.0 mph 82% 0.00 in
01:09 45.9 °F 40.7 °F 29.69 in SSW 4.0 mph 17.0 mph 82% 0.00 in
01:19 45.8 °F 40.6 °F 29.69 in SSW 7.0 mph 13.0 mph 82% 0.00 in
01:24 45.9 °F 40.7 °F 29.68 in SSW 7.0 mph 17.0 mph 82% 0.00 in
01:29 46.0 °F 40.8 °F 29.68 in SSW 7.0 mph 17.0 mph 82% 0.00 in
01:34 46.1 °F 40.9 °F 29.67 in SSW 6.0 mph 16.0 mph 82% 0.00 in
01:39 46.2 °F 41.0 °F 29.67 in SSW 7.0 mph 21.0 mph 82% 0.00 in
01:44 46.3 °F 41.1 °F 29.67 in SSW 8.0 mph 21.0 mph 82% 0.01 in
01:49 46.3 °F 41.4 °F 29.67 in SW 15.0 mph 15.0 mph 83% 0.01 in
01:54 46.2 °F 41.3 °F 29.68 in SSW 8.0 mph 20.0 mph 83% 0.01 in
01:59 46.3 °F 41.4 °F 29.68 in SSW 9.0 mph 15.0 mph 83% 0.01 in
02:04 46.3 °F 41.7 °F 29.68 in SW 10.0 mph 18.0 mph 84% 0.03 in
02:09 46.2 °F 41.6 °F 29.70 in West 11.0 mph 17.0 mph 84% 0.06 in
02:14 46.1 °F 41.8 °F 29.69 in SW 8.0 mph 12.0 mph 85% 0.09 in
02:19 45.9 °F 41.6 °F 29.69 in SW 6.0 mph 18.0 mph 85% 0.09 in
02:24 46.0 °F 42.0 °F 29.69 in SW 7.0 mph 18.0 mph 86% 0.09 in
02:29 46.2 °F 42.2 °F 29.68 in SW 8.0 mph 17.0 mph 86% 0.09 in
02:34 46.2 °F 42.2 °F 29.69 in SW 8.0 mph 17.0 mph 86% 0.09 in
02:39 46.5 °F 42.5 °F 29.69 in SW 10.0 mph 23.0 mph 86% 0.09 in
02:44 46.7 °F 42.1 °F 29.69 in SW 17.0 mph 26.0 mph 84% 0.08 in
02:49 47.0 °F 41.8 °F 29.69 in SW 6.0 mph 24.0 mph 82% 0.08 in
02:54 47.2 °F 41.3 °F 29.69 in WSW 11.0 mph 24.0 mph 80% 0.08 in
02:59 47.2 °F 41.0 °F 29.69 in West 7.0 mph 21.0 mph 79% 0.08 in
03:04 47.3 °F 41.1 °F 29.70 in SSW 11.0 mph 16.0 mph 79% 0.06 in
03:09 47.2 °F 40.7 °F 29.70 in WSW 14.0 mph 17.0 mph 78% 0.03 in
03:14 47.1 °F 40.3 °F 29.70 in West 16.0 mph 17.0 mph 77% 0.00 in
03:19 47.1 °F 40.3 °F 29.69 in West 9.0 mph 22.0 mph 77% 0.00 in
03:24 47.0 °F 40.2 °F 29.70 in WSW 11.0 mph 22.0 mph 77% 0.00 in
03:29 47.0 °F 40.2 °F 29.70 in WSW 9.0 mph 21.0 mph 77% 0.00 in
03:34 46.9 °F 40.1 °F 29.70 in WSW 10.0 mph 19.0 mph 77% 0.00 in
03:39 46.8 °F 40.0 °F 29.71 in WSW 11.0 mph 19.0 mph 77% 0.00 in
03:44 46.8 °F 40.0 °F 29.70 in West 9.0 mph 19.0 mph 77% 0.00 in
03:49 46.7 °F 39.9 °F 29.70 in WSW 10.0 mph 20.0 mph 77% 0.00 in
03:54 46.5 °F 39.7 °F 29.71 in West 12.0 mph 17.0 mph 77% 0.00 in
03:59 46.2 °F 39.1 °F 29.71 in West 9.0 mph 22.0 mph 76% 0.00 in
04:04 46.2 °F 39.1 °F 29.71 in WSW 5.0 mph 18.0 mph 76% 0.00 in
04:14 45.9 °F 39.1 °F 29.72 in West 5.0 mph 18.0 mph 77% 0.00 in
04:19 45.7 °F 38.9 °F 29.72 in West 8.0 mph 18.0 mph 77% 0.00 in
04:24 45.6 °F 38.8 °F 29.72 in West 8.0 mph 16.0 mph 77% 0.00 in
04:29 45.5 °F 38.7 °F 29.72 in West 7.0 mph 16.0 mph 77% 0.00 in
04:34 45.3 °F 38.8 °F 29.72 in West 6.0 mph 18.0 mph 78% 0.00 in
04:39 45.2 °F 38.1 °F 29.73 in West 7.0 mph 18.0 mph 76% 0.00 in
04:44 45.2 °F 38.1 °F 29.73 in WNW 10.0 mph 20.0 mph 76% 0.00 in
04:49 45.2 °F 38.1 °F 29.73 in SW 9.0 mph 15.0 mph 76% 0.00 in
04:54 45.1 °F 37.6 °F 29.73 in West 8.0 mph 15.0 mph 75% 0.00 in
04:59 45.0 °F 37.6 °F 29.72 in West 7.0 mph 15.0 mph 75% 0.00 in
05:04 44.8 °F 37.4 °F 29.72 in West 6.0 mph 13.0 mph 75% 0.00 in
05:09 44.6 °F 37.5 °F 29.72 in SW 7.0 mph 15.0 mph 76% 0.00 in
05:14 44.6 °F 37.5 °F 29.72 in West 10.0 mph 12.0 mph 76% 0.00 in
05:19 44.6 °F 38.2 °F 29.72 in WNW 12.0 mph 16.0 mph 78% 0.01 in
05:24 44.6 °F 38.5 °F 29.72 in West 7.0 mph 16.0 mph 79% 0.01 in
05:29 44.4 °F 38.6 °F 29.72 in West 7.0 mph 16.0 mph 80% 0.01 in
05:34 44.2 °F 38.4 °F 29.72 in WSW 6.0 mph 12.0 mph 80% 0.01 in
05:39 44.1 °F 38.3 °F 29.72 in WSW 6.0 mph 15.0 mph 80% 0.01 in
05:44 44.2 °F 38.4 °F 29.72 in West 6.0 mph 17.0 mph 80% 0.01 in
05:49 44.2 °F 38.4 °F 29.72 in WSW 4.0 mph 13.0 mph 80% 0.01 in
05:54 44.3 °F 38.5 °F 29.71 in West 7.0 mph 14.0 mph 80% 0.01 in
05:59 44.3 °F 38.5 °F 29.71 in WSW 4.0 mph 14.0 mph 80% 0.01 in
06:04 44.3 °F 38.5 °F 29.71 in SW 6.0 mph 13.0 mph 80% 0.01 in
06:09 44.4 °F 38.6 °F 29.71 in West 7.0 mph 14.0 mph 80% 0.01 in
06:14 44.5 °F 38.4 °F 29.71 in WSW 4.0 mph 15.0 mph 79% 0.01 in
06:19 44.5 °F 38.4 °F 29.71 in West 13.0 mph 14.0 mph 79% 0.00 in
06:24 44.5 °F 38.1 °F 29.71 in WSW 7.0 mph 17.0 mph 78% 0.00 in
06:29 44.6 °F 37.5 °F 29.71 in WSW 7.0 mph 17.0 mph 76% 0.00 in
06:34 44.8 °F 37.0 °F 29.71 in WSW 7.0 mph 19.0 mph 74% 0.00 in
06:39 45.0 °F 36.9 °F 29.71 in WSW 8.0 mph 19.0 mph 73% 0.00 in
06:44 45.0 °F 36.5 °F 29.71 in WSW 9.0 mph 19.0 mph 72% 0.00 in
06:49 44.9 °F 36.1 °F 29.72 in West 12.0 mph 17.0 mph 71% 0.00 in
06:54 44.7 °F 35.5 °F 29.72 in West 4.0 mph 20.0 mph 70% 0.00 in
06:59 44.4 °F 35.6 °F 29.72 in West 8.0 mph 20.0 mph 71% 0.00 in
07:09 43.7 °F 35.3 °F 29.72 in West 7.0 mph 12.0 mph 72% 0.00 in
07:14 43.5 °F 35.4 °F 29.73 in West 3.0 mph 14.0 mph 73% 0.00 in
07:19 43.4 °F 35.3 °F 29.73 in WSW 5.0 mph 11.0 mph 73% 0.00 in
07:24 43.4 °F 35.3 °F 29.73 in West 6.0 mph 12.0 mph 73% 0.00 in
07:29 43.3 °F 35.2 °F 29.73 in WNW 6.0 mph 13.0 mph 73% 0.00 in
07:34 43.2 °F 35.1 °F 29.74 in West 6.0 mph 13.0 mph 73% 0.00 in
07:39 43.1 °F 35.0 °F 29.74 in West 6.0 mph 13.0 mph 73% 0.00 in
07:44 42.9 °F 34.8 °F 29.74 in West 5.0 mph 12.0 mph 73% 0.00 in
07:49 42.7 °F 35.0 °F 29.75 in WSW 5.0 mph 11.0 mph 74% 0.00 in
07:54 42.6 °F 34.9 °F 29.75 in WSW 5.0 mph 11.0 mph 74% 0.00 in
07:59 42.5 °F 34.8 °F 29.75 in WNW 7.0 mph 12.0 mph 74% 0.00 in
08:04 42.6 °F 35.2 °F 29.75 in SSW 7.0 mph 13.0 mph 75% 0.00 in
08:09 42.6 °F 35.2 °F 29.75 in WSW 4.0 mph 11.0 mph 75% 0.00 in
08:14 42.6 °F 35.2 °F 29.76 in West 4.0 mph 10.0 mph 75% 0.00 in
08:19 42.5 °F 35.1 °F 29.75 in WSW 7.0 mph 11.0 mph 75% 0.00 in
08:24 42.4 °F 35.0 °F 29.76 in SW 3.0 mph 13.0 mph 75% 0.00 in
08:29 42.4 °F 35.0 °F 29.76 in WSW 3.0 mph 12.0 mph 75% 0.00 in
08:34 42.4 °F 35.4 °F 29.77 in WSW 5.0 mph 12.0 mph 76% 0.00 in
08:39 42.4 °F 35.0 °F 29.77 in WSW 6.0 mph 17.0 mph 75% 0.00 in
08:49 42.1 °F 35.1 °F 29.77 in West 7.0 mph 21.0 mph 76% 0.00 in
08:54 42.0 °F 35.0 °F 29.77 in West 6.0 mph 13.0 mph 76% 0.00 in
08:59 42.1 °F 35.1 °F 29.77 in West 6.0 mph 12.0 mph 76% 0.00 in
09:04 42.5 °F 35.5 °F 29.77 in West 9.0 mph 14.0 mph 76% 0.00 in
09:09 42.5 °F 35.5 °F 29.77 in WSW 5.0 mph 13.0 mph 76% 0.00 in
09:14 42.9 °F 35.9 °F 29.77 in SW 7.0 mph 16.0 mph 76% 0.00 in
09:19 43.5 °F 35.8 °F 29.77 in WNW 12.0 mph 14.0 mph 74% 0.00 in
09:24 43.7 °F 35.6 °F 29.78 in West 14.0 mph 20.0 mph 73% 0.00 in
09:29 43.2 °F 35.1 °F 29.78 in West 9.0 mph 20.0 mph 73% 0.00 in
09:34 42.7 °F 34.6 °F 29.78 in West 9.0 mph 18.0 mph 73% 0.00 in
09:39 42.8 °F 35.1 °F 29.78 in West 8.0 mph 17.0 mph 74% 0.00 in
09:44 43.7 °F 35.6 °F 29.78 in West 8.0 mph 17.0 mph 73% 0.00 in
09:49 43.6 °F 35.5 °F 29.78 in West 8.0 mph 19.0 mph 73% 0.00 in
09:54 43.4 °F 35.3 °F 29.78 in WSW 8.0 mph 19.0 mph 73% 0.00 in
09:59 43.2 °F 35.1 °F 29.79 in WSW 15.0 mph 20.0 mph 73% 0.00 in
10:04 42.8 °F 34.7 °F 29.79 in WSW 9.0 mph 24.0 mph 73% 0.00 in
10:09 42.8 °F 35.1 °F 29.79 in WSW 9.0 mph 24.0 mph 74% 0.00 in
10:14 43.0 °F 35.3 °F 29.79 in West 9.0 mph 16.0 mph 74% 0.00 in
10:19 43.1 °F 35.0 °F 29.79 in WSW 5.0 mph 14.0 mph 73% 0.00 in
10:24 43.5 °F 35.4 °F 29.79 in WSW 6.0 mph 11.0 mph 73% 0.00 in
10:29 43.6 °F 35.5 °F 29.79 in WSW 6.0 mph 14.0 mph 73% 0.00 in
10:34 43.5 °F 35.1 °F 29.80 in WSW 7.0 mph 15.0 mph 72% 0.00 in
10:39 43.4 °F 35.3 °F 29.80 in WSW 8.0 mph 15.0 mph 73% 0.00 in
10:44 43.4 °F 35.0 °F 29.80 in WSW 7.0 mph 14.0 mph 72% 0.00 in
10:49 43.3 °F 35.2 °F 29.80 in West 7.0 mph 13.0 mph 73% 0.00 in
10:54 43.2 °F 34.8 °F 29.80 in WSW 10.0 mph 17.0 mph 72% 0.00 in
10:59 43.0 °F 34.9 °F 29.80 in WSW 7.0 mph 14.0 mph 73% 0.00 in
11:04 42.8 °F 34.7 °F 29.80 in West 10.0 mph 16.0 mph 73% 0.00 in
11:09 42.6 °F 34.5 °F 29.80 in WSW 9.0 mph 16.0 mph 73% 0.00 in
11:14 42.5 °F 34.8 °F 29.80 in WSW 10.0 mph 17.0 mph 74% 0.00 in
11:19 42.5 °F 34.8 °F 29.80 in West 9.0 mph 18.0 mph 74% 0.00 in
11:24 42.5 °F 34.8 °F 29.80 in West 9.0 mph 18.0 mph 74% 0.00 in
11:29 42.5 °F 34.8 °F 29.80 in WSW 8.0 mph 16.0 mph 74% 0.00 in
11:34 42.3 °F 34.6 °F 29.80 in WNW 5.0 mph 18.0 mph 74% 0.00 in
11:39 42.3 °F 34.6 °F 29.80 in West 8.0 mph 18.0 mph 74% 0.00 in
11:44 42.2 °F 34.5 °F 29.81 in WSW 8.0 mph 18.0 mph 74% 0.00 in
11:49 42.1 °F 34.7 °F 29.80 in West 5.0 mph 14.0 mph 75% 0.00 in
11:54 42.2 °F 34.8 °F 29.80 in WNW 8.0 mph 18.0 mph 75% 0.00 in
11:59 42.1 °F 34.7 °F 29.80 in West 7.0 mph 13.0 mph 75% 0.00 in
12:04 42.2 °F 34.8 °F 29.80 in SW 8.0 mph 16.0 mph 75% 0.00 in
12:09 42.3 °F 34.9 °F 29.80 in West 7.0 mph 16.0 mph 75% 0.00 in
12:14 42.2 °F 34.8 °F 29.81 in WSW 8.0 mph 18.0 mph 75% 0.00 in
12:19 42.3 °F 34.9 °F 29.81 in WSW 9.0 mph 21.0 mph 75% 0.00 in
12:24 42.3 °F 35.3 °F 29.81 in West 8.0 mph 21.0 mph 76% 0.00 in
12:29 42.2 °F 35.2 °F 29.81 in West 11.0 mph 17.0 mph 76% 0.00 in
12:34 42.3 °F 35.6 °F 29.81 in WSW 8.0 mph 10.0 mph 77% 0.00 in
12:39 42.3 °F 35.6 °F 29.81 in West 7.0 mph 15.0 mph 77% 0.00 in
12:44 42.4 °F 35.4 °F 29.81 in West 9.0 mph 24.0 mph 76% 0.00 in
12:49 42.5 °F 35.5 °F 29.82 in West 9.0 mph 24.0 mph 76% 0.00 in
12:54 42.5 °F 35.5 °F 29.82 in West 9.0 mph 21.0 mph 76% 0.00 in
12:59 42.5 °F 35.1 °F 29.82 in West 12.0 mph 18.0 mph 75% 0.00 in
13:04 42.4 °F 35.0 °F 29.82 in West 12.0 mph 23.0 mph 75% 0.00 in
13:09 42.6 °F 35.2 °F 29.83 in West 6.0 mph 15.0 mph 75% 0.00 in
13:14 42.7 °F 35.3 °F 29.83 in West 8.0 mph 20.0 mph 75% 0.00 in
13:19 42.6 °F 35.2 °F 29.83 in West 9.0 mph 20.0 mph 75% 0.00 in
13:24 42.7 °F 35.3 °F 29.83 in West 9.0 mph 21.0 mph 75% 0.00 in
13:29 42.7 °F 35.3 °F 29.83 in WNW 12.0 mph 19.0 mph 75% 0.00 in
13:34 42.5 °F 35.1 °F 29.83 in West 8.0 mph 19.0 mph 75% 0.00 in
13:39 42.4 °F 35.7 °F 29.84 in West 8.0 mph 16.0 mph 77% 0.00 in
13:44 42.0 °F 35.3 °F 29.84 in West 8.0 mph 16.0 mph 77% 0.00 in
13:54 41.9 °F 35.5 °F 29.84 in West 5.0 mph 17.0 mph 78% 0.00 in
13:59 41.9 °F 35.9 °F 29.84 in WNW 8.0 mph 13.0 mph 79% 0.00 in
14:04 42.1 °F 35.7 °F 29.85 in WSW 6.0 mph 17.0 mph 78% 0.00 in
14:14 42.3 °F 35.9 °F 29.85 in West 8.0 mph 16.0 mph 78% 0.00 in
14:19 42.3 °F 35.9 °F 29.85 in West 7.0 mph 16.0 mph 78% 0.00 in
14:24 42.3 °F 35.6 °F 29.86 in West 8.0 mph 17.0 mph 77% 0.00 in
14:29 42.3 °F 35.6 °F 29.86 in West 11.0 mph 16.0 mph 77% 0.00 in
14:34 42.4 °F 35.7 °F 29.86 in WSW 7.0 mph 13.0 mph 77% 0.00 in
14:39 42.5 °F 35.8 °F 29.86 in West 9.0 mph 14.0 mph 77% 0.00 in
14:44 42.6 °F 35.9 °F 29.87 in West 12.0 mph 15.0 mph 77% 0.00 in
14:49 42.6 °F 35.6 °F 29.87 in WNW 12.0 mph 22.0 mph 76% 0.00 in
14:54 42.7 °F 35.7 °F 29.88 in West 7.0 mph 16.0 mph 76% 0.00 in
14:59 42.7 °F 35.7 °F 29.88 in NW 9.0 mph 15.0 mph 76% 0.00 in
15:04 42.7 °F 35.7 °F 29.88 in SW 13.0 mph 17.0 mph 76% 0.00 in
15:09 42.7 °F 35.7 °F 29.88 in West 10.0 mph 17.0 mph 76% 0.00 in
15:19 42.7 °F 35.7 °F 29.89 in WNW 7.0 mph 16.0 mph 76% 0.00 in
15:24 42.7 °F 35.3 °F 29.89 in West 9.0 mph 16.0 mph 75% 0.00 in
15:29 42.8 °F 35.4 °F 29.90 in WNW 9.0 mph 16.0 mph 75% 0.00 in
15:34 42.8 °F 34.7 °F 29.90 in WNW 8.0 mph 17.0 mph 73% 0.00 in
15:39 42.7 °F 34.6 °F 29.91 in WNW 11.0 mph 15.0 mph 73% 0.00 in
15:49 42.7 °F 34.3 °F 29.91 in WNW 7.0 mph 14.0 mph 72% 0.00 in
15:54 42.7 °F 34.3 °F 29.91 in WSW 9.0 mph 21.0 mph 72% 0.00 in
15:59 42.8 °F 34.4 °F 29.91 in NNW 10.0 mph 13.0 mph 72% 0.00 in
16:04 42.8 °F 34.4 °F 29.92 in WNW 12.0 mph 12.0 mph 72% 0.00 in
16:09 42.8 °F 34.7 °F 29.92 in WNW 11.0 mph 13.0 mph 73% 0.00 in
16:14 42.7 °F 34.3 °F 29.92 in WNW 6.0 mph 20.0 mph 72% 0.00 in
16:19 42.6 °F 34.2 °F 29.92 in WNW 7.0 mph 20.0 mph 72% 0.00 in
16:24 42.5 °F 34.1 °F 29.92 in WNW 8.0 mph 18.0 mph 72% 0.00 in
16:29 42.5 °F 34.1 °F 29.93 in WNW 8.0 mph 18.0 mph 72% 0.00 in
16:34 42.1 °F 33.7 °F 29.93 in WNW 7.0 mph 22.0 mph 72% 0.00 in
16:39 41.5 °F 33.8 °F 29.94 in WNW 9.0 mph 18.0 mph 74% 0.00 in
16:44 41.1 °F 34.1 °F 29.94 in WNW 8.0 mph 18.0 mph 76% 0.00 in
16:49 40.7 °F 34.4 °F 29.94 in WNW 8.0 mph 11.0 mph 78% 0.00 in
16:54 40.6 °F 34.3 °F 29.95 in West 9.0 mph 19.0 mph 78% 0.00 in
16:59 40.6 °F 34.0 °F 29.95 in West 5.0 mph 15.0 mph 77% 0.00 in
17:04 40.7 °F 33.7 °F 29.95 in WNW 6.0 mph 15.0 mph 76% 0.00 in
17:09 40.7 °F 33.7 °F 29.96 in West 4.0 mph 13.0 mph 76% 0.00 in
17:14 40.7 °F 33.4 °F 29.96 in WNW 7.0 mph 14.0 mph 75% 0.00 in
17:19 40.7 °F 33.1 °F 29.96 in WNW 8.0 mph 14.0 mph 74% 0.00 in
17:24 40.7 °F 32.4 °F 29.97 in WNW 8.0 mph 19.0 mph 72% 0.00 in
17:29 40.7 °F 32.4 °F 29.97 in West 9.0 mph 18.0 mph 72% 0.00 in
17:34 40.7 °F 32.0 °F 29.97 in WNW 3.0 mph 16.0 mph 71% 0.00 in
17:39 40.6 °F 31.6 °F 29.98 in NW 11.0 mph 17.0 mph 70% 0.00 in
17:44 40.5 °F 31.8 °F 29.98 in WNW 9.0 mph 17.0 mph 71% 0.00 in
17:49 40.4 °F 31.7 °F 29.98 in WNW 10.0 mph 19.0 mph 71% 0.00 in
17:54 40.2 °F 31.9 °F 29.99 in WNW 9.0 mph 19.0 mph 72% 0.00 in
17:59 40.1 °F 32.1 °F 29.99 in WNW 9.0 mph 18.0 mph 73% 0.00 in
18:04 40.0 °F 32.0 °F 29.99 in West 11.0 mph 18.0 mph 73% 0.00 in
18:09 40.0 °F 32.0 °F 30.00 in WNW 9.0 mph 18.0 mph 73% 0.00 in
18:14 39.9 °F 31.9 °F 30.00 in NW 7.0 mph 18.0 mph 73% 0.00 in
18:19 39.8 °F 31.5 °F 30.01 in NW 6.0 mph 16.0 mph 72% 0.00 in
18:24 39.8 °F 31.5 °F 30.01 in NW 7.0 mph 17.0 mph 72% 0.00 in
18:29 39.7 °F 31.4 °F 30.01 in WNW 7.0 mph 13.0 mph 72% 0.00 in
18:34 39.6 °F 31.7 °F 30.02 in NW 8.0 mph 17.0 mph 73% 0.00 in
18:39 39.5 °F 31.6 °F 30.02 in WNW 8.0 mph 20.0 mph 73% 0.00 in
18:44 39.5 °F 31.9 °F 30.02 in WNW 8.0 mph 20.0 mph 74% 0.00 in
18:49 39.4 °F 31.8 °F 30.02 in WNW 7.0 mph 15.0 mph 74% 0.00 in
18:54 39.3 °F 31.7 °F 30.03 in WNW 7.0 mph 19.0 mph 74% 0.00 in
19:09 39.0 °F 31.1 °F 30.04 in WSW 5.0 mph 17.0 mph 73% 0.00 in
19:14 38.9 °F 31.0 °F 30.04 in West 6.0 mph 14.0 mph 73% 0.00 in
19:19 38.9 °F 31.3 °F 30.04 in WNW 6.0 mph 15.0 mph 74% 0.00 in
19:24 38.8 °F 31.2 °F 30.05 in WNW 7.0 mph 15.0 mph 74% 0.00 in
19:29 38.7 °F 31.1 °F 30.05 in WSW 3.0 mph 12.0 mph 74% 0.00 in
19:39 38.6 °F 30.4 °F 30.05 in WNW 7.0 mph 18.0 mph 72% 0.00 in
19:44 38.6 °F 30.0 °F 30.05 in WNW 8.0 mph 18.0 mph 71% 0.00 in
19:49 38.6 °F 30.0 °F 30.05 in WNW 7.0 mph 16.0 mph 71% 0.00 in
19:54 38.5 °F 30.3 °F 30.06 in WNW 9.0 mph 13.0 mph 72% 0.00 in
19:59 38.5 °F 29.9 °F 30.06 in NW 3.0 mph 14.0 mph 71% 0.00 in
20:04 38.3 °F 29.0 °F 30.06 in WNW 8.0 mph 15.0 mph 69% 0.00 in
20:09 38.2 °F 28.6 °F 30.06 in WNW 8.0 mph 15.0 mph 68% 0.00 in
20:14 38.1 °F 28.1 °F 30.07 in WNW 8.0 mph 16.0 mph 67% 0.00 in
20:24 38.0 °F 28.0 °F 30.07 in WNW 8.0 mph 13.0 mph 67% 0.00 in
20:29 37.9 °F 27.9 °F 30.07 in West 15.0 mph 16.0 mph 67% 0.00 in
20:34 37.7 °F 27.7 °F 30.07 in West 7.0 mph 15.0 mph 67% 0.00 in
20:39 37.6 °F 28.0 °F 30.08 in WSW 7.0 mph 14.0 mph 68% 0.00 in
20:44 37.5 °F 27.9 °F 30.08 in WSW 7.0 mph 13.0 mph 68% 0.00 in
20:49 37.4 °F 27.8 °F 30.08 in WNW 8.0 mph 17.0 mph 68% 0.00 in
20:54 37.4 °F 27.8 °F 30.08 in WNW 7.0 mph 17.0 mph 68% 0.00 in
20:59 37.2 °F 27.2 °F 30.08 in NW 6.0 mph 15.0 mph 67% 0.00 in
21:04 37.1 °F 27.2 °F 30.09 in WNW 7.0 mph 15.0 mph 67% 0.00 in
21:09 37.1 °F 27.2 °F 30.09 in WNW 7.0 mph 14.0 mph 67% 0.00 in
21:19 36.9 °F 27.0 °F 30.09 in NNW 7.0 mph 18.0 mph 67% 0.00 in
21:24 36.9 °F 27.3 °F 30.10 in NW 8.0 mph 18.0 mph 68% 0.00 in
21:29 36.8 °F 27.2 °F 30.10 in NW 3.0 mph 8.0 mph 68% 0.00 in
21:34 36.7 °F 27.1 °F 30.10 in WNW 7.0 mph 15.0 mph 68% 0.00 in
21:39 36.6 °F 27.4 °F 30.10 in WNW 4.0 mph 15.0 mph 69% 0.00 in
21:44 36.5 °F 27.3 °F 30.10 in WNW 9.0 mph 11.0 mph 69% 0.00 in
21:49 36.5 °F 27.3 °F 30.10 in West 4.0 mph 12.0 mph 69% 0.00 in
21:54 36.5 °F 27.3 °F 30.11 in WNW 6.0 mph 14.0 mph 69% 0.00 in
21:59 36.4 °F 27.2 °F 30.11 in NW 6.0 mph 14.0 mph 69% 0.00 in
22:04 36.4 °F 26.8 °F 30.11 in WNW 7.0 mph 16.0 mph 68% 0.00 in
22:09 36.3 °F 26.7 °F 30.12 in West 14.0 mph 17.0 mph 68% 0.00 in
22:24 36.1 °F 26.9 °F 30.12 in NW 5.0 mph 14.0 mph 69% 0.00 in
22:29 36.1 °F 26.9 °F 30.12 in NW 4.0 mph 15.0 mph 69% 0.00 in
22:34 36.1 °F 26.9 °F 30.12 in NW 6.0 mph 15.0 mph 69% 0.00 in
22:39 36.1 °F 27.3 °F 30.12 in NW 6.0 mph 15.0 mph 70% 0.00 in
22:44 35.9 °F 27.1 °F 30.12 in NW 5.0 mph 11.0 mph 70% 0.00 in
22:49 35.9 °F 27.4 °F 30.12 in NW 5.0 mph 11.0 mph 71% 0.00 in
22:54 36.0 °F 27.5 °F 30.13 in NW 3.0 mph 10.0 mph 71% 0.00 in
22:59 35.9 °F 27.4 °F 30.13 in West 3.0 mph 10.0 mph 71% 0.00 in
23:04 35.9 °F 27.4 °F 30.13 in WNW 3.0 mph 10.0 mph 71% 0.00 in
23:09 35.8 °F 27.7 °F 30.13 in WNW 4.0 mph 10.0 mph 72% 0.00 in
23:14 35.8 °F 28.0 °F 30.13 in NW 9.0 mph 9.0 mph 73% 0.00 in
23:19 35.7 °F 27.9 °F 30.13 in NW 5.0 mph 11.0 mph 73% 0.00 in
23:24 35.6 °F 28.1 °F 30.14 in NW 5.0 mph 13.0 mph 74% 0.00 in
23:29 35.4 °F 27.6 °F 30.13 in NW 6.0 mph 14.0 mph 73% 0.00 in
23:34 35.2 °F 27.1 °F 30.14 in NW 6.0 mph 14.0 mph 72% 0.00 in
23:39 35.1 °F 27.0 °F 30.14 in West 5.0 mph 11.0 mph 72% 0.00 in
23:44 35.0 °F 26.5 °F 30.14 in NW 5.0 mph 12.0 mph 71% 0.00 in
23:49 35.0 °F 26.5 °F 30.14 in NW 3.0 mph 13.0 mph 71% 0.00 in
23:54 35.0 °F 26.5 °F 30.14 in NNW 1.0 mph 12.0 mph 71% 0.00 in
23:59 35.0 °F 26.9 °F 30.14 in NW 12.0 mph 14.0 mph 72% 0.00 in
Buffalo, New York, USA
Compliments of Weather Underground - 2.25 mb